Flag for Germany Weather past 2 weeks in Viersen, North Rhine-Westphalia, Germany

Now
59 °F

Clear.


Feels Like: 60 °F
Forecast: 47 / 69 °F
Wind: 3 mph from North

Location: Monchengladbach Airport

Current Time: Jul 30, 2015 at 8:54:16 PM

Latest Report: Jul 30, 2015 at 8:20 PM


Visibility: 10 mi

Pressure: 30.07 "Hg

Humidity: 77%

Dew point: 52 °F

Location of ViersenLocation

Historic Weather in Viersen — Graph

°F

Viersen temperature yesterday

Maximum temperature yesterday: 66 °F (at 5:50 PM)
Minimum temperature yesterday: 55 °F (at 7:50 AM)
Average temperature yesterday: 61 °F

Past Weeks' High & Low Weather Summary

 TemperatureHumidityPressure
High90 °F (Jul 17, 4:50 PM)100% (Jul 16, 7:50 AM)30.12 "Hg (Jul 16, 7:50 AM)
Low55 °F (Jul 26, 7:50 AM)29% (Jul 17, 4:50 PM)29.50 "Hg (Jul 25, 7:50 AM)
Average69 °F67%29.87 "Hg
* Reported Jul 15 7:20 PM — Jul 30 7:20 PM, Viersen, Weather by CustomWeather, © 2015

Note: Actual official high and low records may vary slightly from our data, if they occured in-between our weather recording intervals... More about our weather records

Advertising

Viersen weather history for previous 24 hours

 ConditionsComfort  
Time TempWeatherWind HumidityBarometerVisibility
7:20 PM
Thu, Jul 30
59 °FScattered showers. Passing clouds.8 mph72%30.04 "HgN/A
6:50 PM59 °FScattered showers. Passing clouds.7 mph72%30.04 "HgN/A
6:20 PM59 °FScattered showers. Passing clouds.10 mph72%30.04 "HgN/A
5:50 PM63 °FPassing clouds.10 mph59%30.04 "HgN/A
5:20 PM63 °FPassing clouds.5 mph64%30.01 "HgN/A
4:50 PM63 °FPassing clouds.5 mph59%30.01 "HgN/A
4:20 PM63 °FPassing clouds.8 mph56%30.01 "HgN/A
3:50 PM63 °FClear.13 mph56%30.01 "Hg10 mi
3:20 PM63 °FPassing clouds.12 mph59%30.01 "HgN/A
2:50 PM61 °FPassing clouds.18 mph68%30.01 "HgN/A
2:20 PM59 °FPassing clouds.20 mph72%30.01 "HgN/A
1:50 PM66 °FPassing clouds.8 mph52%29.98 "HgN/A
1:20 PM64 °FPassing clouds.8 mph49%29.98 "HgN/A
12:50 PM64 °FPassing clouds.8 mph56%29.98 "HgN/A
12:20 PM63 °FScattered clouds.8 mph59%29.98 "HgN/A
11:50 AM63 °FScattered clouds.7 mph64%29.98 "HgN/A
11:20 AM61 °FScattered clouds.6 mph68%29.98 "HgN/A
10:20 AM59 °FPartly sunny.8 mph77%29.98 "HgN/A
9:50 AM59 °FPartly sunny.5 mph77%29.98 "HgN/A
9:20 AM59 °FPassing clouds.7 mph77%29.98 "HgN/A
8:50 AM57 °FPassing clouds.5 mph82%29.95 "HgN/A
8:20 AM57 °FSunny.3 mph82%29.95 "Hg10 mi
7:50 AM55 °FSunny.3 mph82%29.95 "Hg10 mi
Weather by CustomWeather, © 2015

See weather overviewHow to use our weather pages